Szeged, Hungary

3:16 AM CEST on August 23, 2017 (GMT +0200)
Szeged

Weather History for LHUD - October, 2012

Change the Weather History Date:

Saturday, October 13, 2012

  Actual Average (LRAR) Record (LRAR)
Temperature  
Mean Temperature 57 °F -  
Max Temperature 65 °F 58 °F 82 °F (2000)
Min Temperature 49 °F 39 °F 33 °F (2007)
Degree Days  
Heating Degree Days 8    
Growing Degree Days 7 (Base 50)    
Moisture  
Dew Point 48 °F    
Average Humidity 80    
Maximum Humidity 94    
Minimum Humidity 46    
Precipitation  
Precipitation 0.00 in 0.04 in - ()
Sea Level Pressure  
Sea Level Pressure 29.98 in    
Wind  
Wind Speed 3 mph ()    
Max Wind Speed 8 mph    
Max Gust Speed -    
Visibility 6.1 miles    
Events Rain    
Averages and records for this station are not official NWS values.
T = Trace of Precipitation, MM = Missing Value Source: Averaged Metar Reports

Daily Weather History Graph

Daily Weather History Graph

Search for Another Location

Airport or City:

Trip Planner

Search our weather history database for the weather conditions in past years. The results will help you decide how hot, cold, wet, or windy it might be!

Date:

Astronomy

Oct. 13, 2012 Rise Set
Actual Time 6:54 AM CEST 5:56 PM CEST
Civil Twilight 6:24 AM CEST 6:26 PM CEST
Nautical Twilight 5:49 AM CEST 7:01 PM CEST
Astronomical Twilight 5:14 AM CEST 7:36 PM CEST
Moon 4:17 AM CEST (10/13) 4:34 PM CEST (10/13)
Length of Visible Light 12h 02m
Length of Day
11h 02m
Waning Crescent, 6% of the Moon is Illuminated
Oct 13
Waning Crescent
Oct 15
New
Oct 22
First Quarter
Oct 29
Full
Nov 7
Last Quarter

Hourly Weather History & Observations

Time (CEST) Temp. Dew Point Humidity Pressure Visibility Wind Dir Wind Speed Gust Speed Precip Events Conditions
1:45 AM 50.0 °F 48.2 °F 94% 29.95 in 5.0 mi North 3.5 mph - N/A Rain Light Rain
2:00 AM 50 °F 48 °F 89% 29.96 in 5 mi North 2.2 mph - - Rain Light Rain
2:45 AM 50.0 °F 48.2 °F 94% 29.95 in 4.3 mi North 4.6 mph - N/A Rain Light Rain
3:45 AM 50.0 °F 48.2 °F 94% 29.95 in 4.3 mi North 2.3 mph - N/A Rain Light Rain
4:45 AM 50.0 °F 48.2 °F 94% 29.95 in 4.3 mi NNW 2.3 mph - N/A   Overcast
5:45 AM 50.0 °F 48.2 °F 94% 29.98 in 6.2 mi NW 5.8 mph - N/A   Overcast
6:15 AM 50.0 °F 48.2 °F 94% 29.98 in 6.2 mi NNW 2.3 mph - N/A   Overcast
6:45 AM 50.0 °F 48.2 °F 94% 29.98 in 6.2 mi NW 2.3 mph - N/A   Mostly Cloudy
7:15 AM 50.0 °F 48.2 °F 94% 29.98 in 6.2 mi NW 4.6 mph - N/A   Mostly Cloudy
7:45 AM 50.0 °F 48.2 °F 94% 30.01 in - NNW 3.5 mph - N/A   Clear
8:00 AM 50 °F 48 °F 90% 30.00 in 6 mi NNW 4.5 mph - -   Partly Cloudy
8:15 AM 50.0 °F 48.2 °F 94% 30.01 in - NW 5.8 mph - N/A   Clear
8:45 AM 51.8 °F 48.2 °F 88% 30.01 in - NNW 4.6 mph - N/A   Clear
9:15 AM 51.8 °F 48.2 °F 88% 30.01 in - NNW 5.8 mph - N/A   Clear
9:45 AM 51.8 °F 46.4 °F 82% 30.04 in - NW 5.8 mph - N/A   Clear
10:45 AM 53.6 °F 48.2 °F 82% 30.04 in - NW 6.9 mph - N/A   Clear
11:45 AM 55.4 °F 50.0 °F 82% 30.04 in - NNW 3.5 mph - N/A   Clear
12:15 PM 59.0 °F 48.2 °F 67% 30.01 in - WNW 3.5 mph - N/A   Clear
12:45 PM 60.8 °F 48.2 °F 63% 30.01 in - NW 3.5 mph - N/A   Clear
1:15 PM 60.8 °F 46.4 °F 59% 30.01 in - NW 3.5 mph - N/A   Clear
2:00 PM 62 °F 46 °F 46% 30.00 in 12 mi North 4.5 mph - -   Partly Cloudy
2:45 PM 64.4 °F 44.6 °F 49% 29.98 in - North 4.6 mph - N/A   Clear
3:15 PM 64.4 °F 44.6 °F 49% 29.98 in - NE 1.2 mph - N/A   Clear
3:45 PM 64.4 °F 44.6 °F 49% 29.98 in - Calm Calm - N/A   Clear
4:45 PM 62.6 °F 44.6 °F 52% 29.98 in - Calm Calm - N/A   Clear
5:15 PM 60.8 °F 46.4 °F 59% 29.98 in - SSE 5.8 mph - N/A   Clear
5:45 PM 59.0 °F 48.2 °F 67% 29.98 in - SE 4.6 mph - N/A   Clear
6:15 PM 57.2 °F 48.2 °F 72% 29.98 in - SE 3.5 mph - N/A   Clear
6:45 PM 53.6 °F 48.2 °F 82% 29.98 in - SSE 3.5 mph - N/A   Clear
7:15 PM 53.6 °F 48.2 °F 82% 29.95 in - ESE 4.6 mph - N/A   Clear
7:45 PM 53.6 °F 48.2 °F 82% 29.95 in - SE 4.6 mph - N/A   Clear
8:00 PM 54 °F 47 °F 71% 29.95 in 7 mi SE 4.5 mph - -   Partly Cloudy
8:15 PM 53.6 °F 48.2 °F 82% 29.95 in - SE 4.6 mph - N/A   Clear
8:45 PM 51.8 °F 46.4 °F 82% 29.95 in - SSE 5.8 mph - N/A   Clear
9:15 PM 51.8 °F 48.2 °F 88% 29.95 in - SSE 8.1 mph - N/A   Clear
9:45 PM 51.8 °F 50.0 °F 94% 29.95 in - SSE 5.8 mph - N/A   Clear
10:45 PM 51.8 °F 50.0 °F 94% 29.95 in - South 3.5 mph - N/A   Clear
11:45 PM 51.8 °F 50.0 °F 94% 29.92 in - ESE 2.3 mph - N/A   Clear